World > North America > United States > Texas > Eastland   City of Eastland, TX

Eastland, TX Hourly Weather Updates

Feedback E-mail the Weather

Quick Clicks

Eastland, TX Weather Maps

°F °C°F °C
Eastland Weather Map
UTC Time: 6/17/2024, 13:21
Your Time:

Eastland, TX Regional Weather

Expires:202406171400;;175032
ASUS44 KFWD 171315
RWRTX 
NORTH TEXAS HOURLY WEATHER ROUNDUP
NATIONAL WEATHER SERVICE FORT WORTH TX
800 AM CDT MON JUN 17 2024

NOTE: "FAIR" INDICATES FEW OR NO CLOUDS BELOW 12,000 FEET WITH NO
SIGNIFICANT WEATHER AND/OR OBSTRUCTIONS TO VISIBILITY.


TXZ083>090-098>101-113>116-127>130-139>142-154-155-171400-
WESTERN NORTH TEXAS
  
CITY           SKY/WX    TMP DP  RH WIND       PRES   REMARKS
WICHITA FALLS  FAIR      79  71  76 S16G24    29.78S                  
WF-KICKAPOO    FAIR      79  71  76 S15G23    29.80S                  
VERNON         FAIR      80  71  74 S15       29.78S                  
ABILENE        FAIR      77  70  79 S16G28    29.82R                  
ABILENE-DYESS  FAIR      77  69  74 S24G37    29.79R                  
GRAHAM         FAIR      78  72  82 S12G18    29.79S                  
BRECKENRIDGE   FAIR      78  71  77 MISG      29.81S                  
CISCO            N/A     75  73  94 S16       29.81R                  
EASTLAND         N/A     75  70  84 S10       29.84R                  
RANGER         FAIR      76  47  36 S13G18    29.84S                  
MINERAL WELLS  PTSUNNY   78  72  81 S9G21     29.81S                  
STEPHENVILLE   FAIR      76  72  85 SE10G17   29.87S                  
COMANCHE       FAIR      78  73  83 S13       29.84S                  
BROWNWOOD      FAIR      77  72  83 SE13G18   29.84R                  
COLEMAN        FAIR      76  69  78 MISG      29.85R                  
BRADY          FAIR      75  70  83 S12       29.84R                  
SAN SABA       PTSUNNY   78  73  83 SE14      29.85R                  
$$


SKY/WX - Weather  TMP - Temperature  DP - Dew Point  RH - Humidity
WIND - Wind Direction/Speed PRES - Barometric Pressure VSB - Visibility
WCI - Wind Chill Index E13G22 Wind - East Wind 13 mph/Gusts of 22 mph

Trending Headlines

Trending Entertainment Headlines

Eastland Radar Loop

Use the map search tool if you want to place a location marker on the radar map...

Eastland Quick Facts

National Two Day Weather Forecast


E-mail the Eastland Weather Forecast

Voice your opinion or tell us about page issues...